Flag for Germany Weather past 2 weeks in Nürtingen, Baden-Württemberg, Germany

57 °F

Passing clouds.

Feels Like: 57 °F
Forecast: 44 / 60 °F
Wind: 2 mph from North

Location: Stuttgart-Echterdingen

Current Time: Oct 7, 2015 at 9:58:49 PM

Latest Report: Oct 7, 2015 at 9:20 PM

Visibility: N/A

Pressure: 30.07 "Hg

Humidity: 77%

Dew point: 50 °F

Location of NürtingenLocation

Historic Weather in Nürtingen — Graph


Nürtingen temperature yesterday

Maximum temperature yesterday: 66 °F (at 12:20 PM)
Minimum temperature yesterday: 54 °F (at 7:50 AM)
Average temperature yesterday: 59 °F

Past Weeks' High & Low Weather Summary

High72 °F (Oct 3, 3:50 PM)100% (Sep 25, 8:20 AM)30.51 "Hg (Sep 25, 8:20 AM)
Low41 °F (Oct 1, 4:50 AM)32% (Sep 30, 3:50 PM)29.65 "Hg (Sep 22, 9:20 PM)
Average55 °F73%30.15 "Hg
* Reported Sep 22 8:20 PM — Oct 7 8:50 PM, Nürtingen, Weather by CustomWeather, © 2015

Note: Actual official high and low records may vary slightly from our data, if they occured in-between our weather recording intervals... More about our weather records


Nürtingen weather history for previous 24 hours

Time TempWeatherWind HumidityBarometerVisibility
8:50 PM
Wed, Oct 7
57 °FPassing clouds.5 mph77%30.04 "HgN/A
8:20 PM57 °FPartly cloudy.6 mph72%30.04 "HgN/A
7:50 PM57 °FPassing clouds.7 mph72%30.04 "HgN/A
7:20 PM59 °FPartly sunny.8 mph68%30.04 "HgN/A
6:50 PM59 °FPartly sunny.8 mph72%30.01 "HgN/A
6:20 PM61 °FScattered clouds.10 mph68%30.01 "HgN/A
5:50 PM61 °FScattered clouds.9 mph68%30.01 "HgN/A
5:20 PM63 °FPartly sunny.8 mph59%29.98 "HgN/A
4:50 PM63 °FPartly sunny.6 mph64%29.98 "HgN/A
4:20 PM63 °FScattered clouds.8 mph64%29.98 "HgN/A
3:50 PM63 °FScattered clouds.9 mph59%29.98 "HgN/A
3:20 PM63 °FScattered clouds.12 mph64%29.98 "HgN/A
2:50 PM63 °FScattered clouds.17 mph59%29.98 "HgN/A
2:20 PM64 °FScattered clouds.14 mph60%29.98 "HgN/A
1:50 PM63 °FScattered clouds.13 mph64%29.98 "HgN/A
1:20 PM63 °FScattered clouds.12 mph73%29.95 "HgN/A
12:50 PM61 °FPartly sunny.8 mph83%29.95 "HgN/A
12:20 PM59 °FBroken clouds.10 mph88%29.95 "HgN/A
11:50 AM59 °FPartly sunny.8 mph88%29.95 "HgN/A
11:20 AM59 °FBroken clouds.10 mph88%29.95 "HgN/A
10:50 AM59 °FSprinkles. Partly sunny.3 mph94%29.92 "HgN/A
10:20 AM61 °FBroken clouds.2 mph83%29.92 "HgN/A
9:50 AM59 °FScattered showers. Broken clouds.5 mph88%29.92 "HgN/A
9:20 AM59 °FScattered showers. Broken clouds.6 mph88%29.89 "HgN/A
8:50 AM59 °FScattered showers. Partly sunny.5 mph88%29.89 "HgN/A
8:20 AM57 °FPassing clouds.3 mph94%29.89 "HgN/A
7:50 AM57 °FPartly cloudy.2 mph94%29.86 "HgN/A
7:20 AM57 °FPartly cloudy.2 mph94%29.86 "HgN/A
6:50 AM57 °FPartly cloudy.3 mph94%29.86 "HgN/A
6:20 AM57 °FPassing clouds.2 mph94%29.86 "HgN/A
5:50 AM57 °FPartly cloudy.2 mph94%29.86 "HgN/A
5:20 AM57 °FPartly cloudy.2 mph94%29.83 "HgN/A
4:50 AM57 °FPartly cloudy.2 mph94%29.83 "HgN/A
4:20 AM57 °FPartly cloudy.2 mph94%29.83 "HgN/A
3:50 AM59 °FPartly cloudy.2 mph88%29.83 "HgN/A
3:20 AM57 °FPartly cloudy.2 mph94%29.83 "HgN/A
2:50 AM57 °FPartly cloudy.1 mph94%29.83 "HgN/A
2:20 AM57 °FLight rain. Partly cloudy.2 mph94%29.83 "HgN/A
1:50 AM57 °FPartly cloudy.2 mph94%29.83 "HgN/A
1:20 AM57 °FLight rain. Partly cloudy.2 mph94%29.83 "HgN/A
12:50 AM59 °FPassing clouds.1 mph88%29.80 "HgN/A
12:20 AM57 °FLight rain. Clear.1 mph100%29.83 "HgN/A
11:50 PM
Tue, Oct 6
57 °FClear.1 mph94%29.83 "Hg10 mi
11:20 PM57 °FClear.1 mph94%29.80 "Hg10 mi
10:50 PM57 °FClear.2 mph94%29.80 "Hg10 mi
10:20 PM57 °FPartly cloudy.2 mph94%29.80 "HgN/A
9:50 PM57 °FPartly cloudy.2 mph94%29.80 "HgN/A
9:20 PM57 °FPartly cloudy.2 mph94%29.80 "HgN/A
Weather by CustomWeather, © 2015

See weather overviewHow to use our weather pages